CW5456 Weather Reports


Display with metric or nautical units.
time (UTC)temp
F
wind
direction
speed
MPH
gust
MPH
rain 1hr
in
rain 24hr
in
rain mn
in
humidity
%
barometer
mb
20180222070007 32 33 2.0 9.0 0.00 0.00 0.00 90 1021.2
20180222065507 32 23 5.0 6.0 0.00 0.00 0.00 90 1021.1
20180222065007 32 50 3.0 5.0 0.00 0.00 0.00 90 1021.1
20180222064507 32 57 0.0 9.0 0.00 0.00 0.00 90 1021.1
20180222064006 32 33 0.0 9.0 0.00 0.00 0.00 91 1021.0
20180222063506 32 52 0.0 9.0 0.00 0.00 0.00 91 1021.0
20180222063009 32 35 2.0 7.0 0.00 0.00 0.00 92 1021.0
20180222062506 32 23 2.0 6.0 0.00 0.00 0.00 92 1021.1
20180222062006 32 18 0.0 7.0 0.00 0.00 0.00 92 1021.0
20180222061509 32 33 0.0 7.0 0.00 0.00 0.00 93 1021.0
20180222061007 32 24 1.0 3.0 0.00 0.00 0.00 93 1020.9
20180222060506 32 15 0.0 6.0 0.00 0.00 0.00 93 1020.9
20180222060005 31 63 0.0 6.0 0.00 0.00 0.00 93 1020.9
20180222055505 31 36 3.0 4.0 0.00 0.00 0.00 93 1020.9
20180222055006 31 62 0.0 6.0 0.00 0.00 0.00 92 1020.9
20180222054508 31 43 0.0 6.0 0.00 0.00 0.00 92 1020.9
20180222054008 31 72 0.0 4.0 0.00 0.00 0.00 93 1020.9
20180222053505 31 27 0.0 6.0 0.00 0.00 0.00 92 1020.9
20180222053005 31 65 4.0 6.0 0.00 0.00 0.00 92 1020.9
20180222052504 31 62 0.0 7.0 0.00 0.00 0.00 92 1020.9
20180222052004 31 68 0.0 7.0 0.00 0.00 0.00 92 1020.9
20180222051505 31 88 2.0 4.0 0.00 0.00 0.00 92 1020.9
20180222051004 31 73 1.0 4.0 0.00 0.00 0.00 92 1020.9
20180222050504 31 73 0.0 3.0 0.00 0.00 0.00 92 1020.8
20180222050037 31 79 0.0 3.0 0.00 0.00 0.00 92 1020.9
20180222045533 31 79 0.0 3.0 0.00 0.00 0.00 92 1020.8
20180222045004 31 79 0.0 1.0 0.00 0.00 0.00 92 1020.9
20180222044533 31 112 0.0 0.0 0.00 0.00 0.00 92 1020.8
20180222044037 31 112 0.0 0.0 0.00 0.00 0.00 92 1020.8
20180222043536 31 112 0.0 0.0 0.00 0.00 0.00 92 1020.8
20180222043036 31 112 0.0 0.0 0.00 0.00 0.00 92 1020.8
20180222042503 31 112 0.0 0.0 0.00 0.00 0.00 92 1020.9
20180222042032 31 112 0.0 0.0 0.00 0.00 0.00 92 1020.9
20180222041503 31 112 0.0 2.0 0.00 0.00 0.00 91 1020.9
20180222041006 31 112 0.0 2.0 0.00 0.00 0.00 91 1021.0
20180222040502 31 112 0.0 1.0 0.00 0.00 0.00 91 1020.9
20180222040035 31 112 0.0 0.0 0.00 0.00 0.00 91 1021.0
20180222035502 31 112 0.0 1.0 0.00 0.00 0.00 91 1020.9
20180222035032 31 112 0.0 1.0 0.00 0.00 0.00 91 1021.1
20180222034502 31 112 0.0 1.0 0.00 0.00 0.00 90 1021.0
20180222034001 31 112 0.0 1.0 0.00 0.00 0.00 90 1021.1
20180222033501 31 112 0.0 2.0 0.00 0.00 0.00 90 1021.1
20180222033001 31 112 0.0 3.0 0.00 0.00 0.00 89 1021.2
20180222032501 31 112 0.0 3.0 0.00 0.00 0.00 89 1021.3
20180222032001 31 112 2.0 3.0 0.00 0.00 0.00 89 1021.3
20180222031504 31 112 1.0 3.0 0.00 0.00 0.00 88 1021.2
20180222031030 31 114 0.0 3.0 0.00 0.00 0.00 88 1021.3
20180222030530 31 114 0.0 4.0 0.00 0.00 0.00 87 1021.4
20180222030033 32 114 1.0 4.0 0.00 0.00 0.00 86 1021.5
20180222025531 32 114 1.0 2.0 0.00 0.00 0.00 85 1021.5
20180222025030 32 114 0.0 0.0 0.00 0.00 0.00 84 1021.6
20180222024530 32 114 0.0 2.0 0.00 0.00 0.00 84 1021.6
20180222024030 32 114 0.0 2.0 0.00 0.00 0.00 83 1021.6
20180222023529 33 114 0.0 0.0 0.00 0.00 0.00 82 1021.5
20180222023029 33 114 0.0 1.0 0.00 0.00 0.00 81 1021.6
20180222022530 33 114 0.0 3.0 0.00 0.00 0.00 81 1021.6
20180222022030 33 114 0.0 4.0 0.00 0.00 0.00 80 1021.6
20180222021529 33 114 1.0 4.0 0.00 0.00 0.00 78 1021.6
20180222021029 33 86 0.0 6.0 0.00 0.00 0.00 76 1021.5
20180222020529 33 67 2.0 6.0 0.00 0.00 0.00 75 1021.6
20180222020029 33 75 4.0 4.0 0.00 0.00 0.00 74 1021.6
20180222015532 34 109 2.0 2.0 0.00 0.00 0.00 73 1021.7
20180222015028 34 112 0.0 3.0 0.00 0.00 0.00 73 1021.7
20180222014528 34 112 0.0 8.0 0.00 0.00 0.00 72 1021.8
20180222014028 34 112 1.0 8.0 0.00 0.00 0.00 72 1021.7
20180222013528 34 73 2.0 6.0 0.00 0.00 0.00 70 1021.7
20180222013031 34 102 0.0 5.0 0.00 0.00 0.00 71 1021.7
20180222012527 34 112 2.0 5.0 0.00 0.00 0.00 70 1021.7
20180222012030 34 71 0.0 4.0 0.00 0.00 0.00 71 1021.8
20180222011528 34 71 0.0 7.0 0.00 0.00 0.00 70 1021.9
20180222011031 34 68 4.0 7.0 0.00 0.00 0.00 70 1022.0
20180222010530 34 85 0.0 6.0 0.00 0.00 0.00 69 1022.0
20180222010027 34 122 3.0 7.0 0.00 0.00 0.00 69 1022.1
20180222005527 35 66 2.0 7.0 0.00 0.00 0.00 68 1022.2
20180222005029 35 107 2.0 7.0 0.00 0.00 0.00 66 1022.2
20180222004529 35 116 3.0 10.0 0.00 0.00 0.00 65 1022.2
20180222004029 35 131 4.0 10.0 0.00 0.00 0.00 65 1022.3
20180222003526 35 142 7.0 7.0 0.00 0.00 0.00 65 1022.3
20180222003026 35 100 3.0 8.0 0.00 0.00 0.00 64 1022.3
20180222002526 35 92 0.0 8.0 0.00 0.00 0.00 64 1022.4
20180222002026 35 110 4.0 11.0 0.00 0.00 0.00 63 1022.4
20180222001525 35 78 2.0 11.0 0.00 0.00 0.00 62 1022.5
20180222001026 35 137 6.0 8.0 0.00 0.00 0.00 61 1022.6
20180222000526 35 140 5.0 9.0 0.00 0.00 0.00 60 1022.6
20180222000025 36 88 3.0 9.0 0.00 0.00 0.00 59 1022.6
20180221235528 36 97 3.0 8.0 0.00 0.00 0.00 59 1022.8
20180221235028 36 64 3.0 7.0 0.00 0.00 0.00 59 1022.8
20180221234528 36 112 4.0 7.0 0.00 0.00 0.00 59 1022.9
20180221234028 36 130 1.0 7.0 0.00 0.00 0.00 57 1023.0
20180221233525 36 104 3.0 8.0 0.00 0.00 0.00 57 1022.9
20180221233027 36 107 2.0 8.0 0.00 0.00 0.00 57 1022.9
20180221232524 36 112 3.0 7.0 0.00 0.00 0.00 58 1023.0
20180221232024 36 83 0.0 7.0 0.00 0.00 0.00 57 1023.0
20180221231524 36 100 4.0 7.0 0.00 0.00 0.00 57 1023.2
20180221231023 36 180 4.0 6.0 0.00 0.00 0.00 57 1023.2
20180221230527 36 122 0.0 6.0 0.00 0.00 0.00 59 1023.3
20180221230023 36 118 0.0 7.0 0.00 0.00 0.00 57 1023.4
20180221225523 36 108 3.0 7.0 0.00 0.00 0.00 57 1023.4
20180221225023 36 105 2.0 7.0 0.00 0.00 0.00 58 1023.4
20180221224526 36 105 2.0 7.0 0.00 0.00 0.00 58 1023.5
20180221224023 36 36 1.0 8.0 0.00 0.00 0.00 58 1023.5
20180221223523 36 70 3.0 8.0 0.00 0.00 0.00 58 1023.5
20180221223023 36 125 1.0 5.0 0.00 0.00 0.00 58 1023.6
20180221222522 36 34 0.0 4.0 0.00 0.00 0.00 58 1023.7
20180221222026 36 107 0.0 8.0 0.00 0.00 0.00 58 1023.7
20180221221522 36 98 2.0 8.0 0.00 0.00 0.00 58 1023.8
20180221221022 36 88 3.0 9.0 0.00 0.00 0.00 59 1023.7
20180221220522 36 64 7.0 9.0 0.00 0.00 0.00 58 1023.8
20180221220022 36 98 4.0 8.0 0.00 0.00 0.00 58 1023.8
20180221215521 36 86 3.0 9.0 0.00 0.00 0.00 58 1023.9
20180221215022 36 82 2.0 9.0 0.00 0.00 0.00 58 1023.9
20180221214521 36 16 1.0 5.0 0.00 0.00 0.00 60 1023.9
20180221214021 36 347 0.0 2.0 0.00 0.00 0.00 58 1024.0
20180221213521 35 347 1.0 2.0 0.00 0.00 0.00 57 1024.1
20180221213022 35 347 1.0 4.0 0.00 0.00 0.00 57 1024.2
20180221212524 35 347 1.0 4.0 0.00 0.00 0.00 58 1024.2
20180221212020 35 347 0.0 5.0 0.00 0.00 0.00 58 1024.2
20180221211520 35 347 2.0 5.0 0.00 0.00 0.00 58 1024.2
20180221211020 35 347 3.0 5.0 0.00 0.00 0.00 57 1024.2
20180221210523 36 278 3.0 4.0 0.00 0.00 0.00 57 1024.3
20180221210020 36 249 4.0 4.0 0.00 0.00 0.00 59 1024.3
20180221205520 35 210 1.0 3.0 0.00 0.00 0.00 58 1024.4
20180221205020 35 210 2.0 3.0 0.00 0.00 0.00 57 1024.5
20180221204520 36 208 2.0 3.0 0.00 0.00 0.00 57 1024.5
20180221204020 36 190 0.0 2.0 0.00 0.00 0.00 57 1024.6
20180221203519 36 190 1.0 2.0 0.00 0.00 0.00 56 1024.6
20180221203019 36 190 0.0 3.0 0.00 0.00 0.00 56 1024.6
20180221202520 35 190 1.0 4.0 0.00 0.00 0.00 56 1024.6
20180221202019 36 191 1.0 4.0 0.00 0.00 0.00 55 1024.8
20180221201519 37 138 1.0 4.0 0.00 0.00 0.00 54 1024.8
20180221201019 37 137 2.0 5.0 0.00 0.00 0.00 53 1024.9
20180221200519 37 137 0.0 5.0 0.00 0.00 0.00 53 1024.9
20180221200021 37 135 5.0 6.0 0.00 0.00 0.00 52 1025.1
20180221195518 36 133 2.0 6.0 0.00 0.00 0.00 53 1025.1
20180221195018 36 151 0.0 4.0 0.00 0.00 0.00 54 1025.2
20180221194521 36 163 0.0 6.0 0.00 0.00 0.00 54 1025.1
20180221194018 36 167 2.0 6.0 0.00 0.00 0.00 56 1025.1
20180221193517 36 147 3.0 6.0 0.00 0.00 0.00 56 1025.1
20180221193017 36 166 3.0 6.0 0.00 0.00 0.00 55 1025.2
20180221192518 36 100 2.0 5.0 0.00 0.00 0.00 54 1025.1
20180221192017 36 124 0.0 6.0 0.00 0.00 0.00 56 1025.2
20180221191517 36 118 4.0 10.0 0.00 0.00 0.00 58 1025.1
20180221191017 36 114 3.0 10.0 0.00 0.00 0.00 55 1025.1
20180221190517 36 123 1.0 8.0 0.00 0.00 0.00 58 1025.2
20180221190016 36 119 4.0 7.0 0.00 0.00 0.00 58 1025.2
20180221185519 35 98 4.0 9.0 0.00 0.00 0.00 59 1025.1
20180221185016 36 119 5.0 9.0 0.00 0.00 0.00 58 1025.2
20180221184516 36 132 6.0 10.0 0.00 0.00 0.00 57 1025.1
20180221184016 36 120 1.0 10.0 0.00 0.00 0.00 57 1025.2
20180221183516 36 94 0.0 9.0 0.00 0.00 0.00 59 1025.2
20180221183016 35 111 5.0 9.0 0.00 0.00 0.00 59 1025.1
20180221182516 35 101 8.0 9.0 0.00 0.00 0.00 60 1025.0
20180221182015 34 139 4.0 9.0 0.00 0.00 0.00 63 1025.1
20180221181515 34 104 3.0 8.0 0.00 0.00 0.00 62 1025.1
20180221181015 33 144 5.0 9.0 0.00 0.00 0.00 64 1025.2
20180221180515 33 110 4.0 9.0 0.00 0.00 0.00 64 1025.1
20180221180015 33 109 3.0 9.0 0.00 0.00 0.00 64 1025.0
20180221175514 33 137 9.0 11.0 0.00 0.00 0.00 63 1025.0
20180221175014 33 109 8.0 12.0 0.00 0.00 0.00 62 1025.0
20180221174517 33 121 5.0 14.0 0.00 0.00 0.00 62 1025.2
20180221174014 33 120 11.0 14.0 0.00 0.00 0.00 61 1025.2
20180221173514 33 129 9.0 13.0 0.00 0.00 0.00 62 1025.3
20180221173014 33 71 2.0 10.0 0.00 0.00 0.00 64 1025.4
20180221172514 33 111 5.0 8.0 0.00 0.00 0.00 65 1025.5
20180221172013 33 102 8.0 8.0 0.00 0.00 0.00 64 1025.5
20180221171513 32 93 2.0 4.0 0.00 0.00 0.00 65 1025.5
20180221171013 32 92 4.0 4.0 0.00 0.00 0.00 65 1025.6
20180221170513 32 88 0.0 4.0 0.00 0.00 0.00 67 1025.7
20180221170016 32 88 1.0 4.0 0.00 0.00 0.00 67 1025.8
20180221165513 31 85 2.0 4.0 0.00 0.00 0.00 67 1025.8
20180221165013 31 85 2.0 4.0 0.00 0.00 0.00 70 1025.8
20180221164513 31 78 2.0 3.0 0.00 0.00 0.00 71 1025.9
20180221164013 30 78 0.0 3.0 0.00 0.00 0.00 72 1026.0
20180221163512 30 78 2.0 3.0 0.00 0.00 0.00 72 1025.9
20180221163012 30 78 1.0 3.0 0.00 0.00 0.00 71 1026.0
20180221162513 30 78 1.0 3.0 0.00 0.00 0.00 71 1026.0
20180221162013 30 78 1.0 2.0 0.00 0.00 0.00 70 1026.2
20180221161512 30 78 1.0 2.0 0.00 0.00 0.00 71 1026.0
20180221161014 30 78 0.0 2.0 0.00 0.00 0.00 72 1026.0
20180221160515 30 78 1.0 2.0 0.00 0.00 0.00 74 1025.9
20180221160011 29 78 1.0 2.0 0.00 0.00 0.00 74 1026.0
20180221155511 29 78 0.0 2.0 0.00 0.00 0.00 74 1025.9
20180221155012 29 78 2.0 3.0 0.00 0.00 0.00 74 1025.8
20180221154511 29 78 0.0 3.0 0.00 0.00 0.00 74 1025.9
20180221154011 29 78 3.0 4.0 0.00 0.00 0.00 74 1025.8
20180221153514 29 77 1.0 4.0 0.00 0.00 0.00 74 1025.8
20180221153010 29 77 3.0 3.0 0.00 0.00 0.00 74 1025.8
20180221152510 29 75 2.0 3.0 0.00 0.00 0.00 74 1025.9
20180221152011 29 75 2.0 4.0 0.00 0.00 0.00 73 1025.9
20180221151513 29 90 3.0 4.0 0.00 0.00 0.00 72 1026.0
20180221151013 29 43 0.0 3.0 0.00 0.00 0.00 71 1026.0
20180221150513 29 40 1.0 4.0 0.00 0.00 0.00 72 1026.0
20180221150009 29 83 1.0 4.0 0.00 0.00 0.00 72 1026.0
20180221145513 28 104 0.0 4.0 0.00 0.00 0.00 74 1026.0
20180221145012 28 89 2.0 3.0 0.00 0.00 0.00 74 1025.8
20180221144512 28 89 0.0 4.0 0.00 0.00 0.00 75 1025.8
20180221144009 29 89 2.0 4.0 0.00 0.00 0.00 75 1025.8
20180221143509 29 87 1.0 3.0 0.00 0.00 0.00 71 1025.7
20180221143009 28 87 0.0 2.0 0.00 0.00 0.00 71 1025.7
20180221142508 28 87 0.0 1.0 0.00 0.00 0.00 72 1025.7
20180221142011 28 87 0.0 2.0 0.00 0.00 0.00 72 1025.6
20180221141511 29 87 0.0 4.0 0.00 0.00 0.00 73 1025.7
20180221141009 29 87 1.0 6.0 0.00 0.00 0.00 74 1025.7
20180221140511 29 105 2.0 6.0 0.00 0.00 0.00 75 1025.7
20180221140008 29 82 2.0 4.0 0.00 0.00 0.00 72 1025.6
20180221135511 29 88 2.0 4.0 0.00 0.00 0.00 75 1025.6
20180221135011 29 64 3.0 4.0 0.00 0.00 0.00 75 1025.5
20180221134510 29 64 0.0 4.0 0.00 0.00 0.00 75 1025.6
20180221134007 29 64 1.0 3.0 0.00 0.00 0.00 75 1025.6
20180221133508 29 64 0.0 3.0 0.00 0.00 0.00 75 1025.5
20180221133007 29 50 2.0 3.0 0.00 0.00 0.00 74 1025.6
20180221132511 29 50 2.0 3.0 0.00 0.00 0.00 73 1025.5
20180221132007 29 50 0.0 3.0 0.00 0.00 0.00 73 1025.5
20180221131507 29 50 1.0 4.0 0.00 0.00 0.00 72 1025.5
20180221131010 30 50 0.0 4.0 0.00 0.00 0.00 71 1025.6
20180221130509 30 50 1.0 3.0 0.00 0.00 0.00 71 1025.6
20180221130006 30 40 1.0 6.0 0.00 0.00 0.00 70 1025.7
20180221125506 31 25 3.0 10.0 0.00 0.00 0.00 69 1025.7
20180221125006 31 27 6.0 11.0 0.00 0.00 0.00 67 1025.8
20180221124506 31 25 6.0 11.0 0.00 0.00 0.00 67 1025.8
20180221124006 31 23 6.0 10.0 0.00 0.00 0.00 68 1025.9
20180221123508 31 18 6.0 10.0 0.00 0.00 0.00 68 1025.9
20180221123008 31 18 7.0 9.0 0.00 0.00 0.00 66 1025.9
20180221122505 31 14 7.0 10.0 0.00 0.00 0.00 67 1025.9
20180221122005 31 3 9.0 11.0 0.00 0.00 0.00 66 1025.9
20180221121505 31 13 9.0 11.0 0.00 0.00 0.00 67 1025.8
20180221121005 32 17 7.0 11.0 0.00 0.00 0.00 69 1025.9
20180221120505 31 29 7.0 11.0 0.00 0.00 0.00 66 1025.8
20180221120004 31 27 9.0 12.0 0.00 0.00 0.00 65 1025.7
20180221115504 31 33 8.0 12.0 0.00 0.00 0.00 65 1025.7
20180221115004 31 18 7.0 11.0 0.00 0.00 0.00 66 1025.7
20180221114504 32 41 0.0 12.0 0.00 0.00 0.00 63 1025.6
20180221114007 31 30 7.0 12.0 0.00 0.00 0.00 65 1025.5
20180221113504 31 34 3.0 10.0 0.00 0.00 0.00 65 1025.5
20180221113006 31 24 4.0 10.0 0.00 0.00 0.00 66 1025.5
20180221112504 31 24 7.0 9.0 0.00 0.00 0.00 67 1025.5
20180221112003 31 25 5.0 9.0 0.00 0.00 0.00 67 1025.5
20180221111503 32 52 4.0 10.0 0.00 0.00 0.00 66 1025.5
20180221111003 32 19 0.0 13.0 0.00 0.00 0.00 66 1025.5
20180221110503 32 30 9.0 13.0 0.00 0.00 0.00 65 1025.6
20180221110003 32 25 6.0 12.0 0.00 0.00 0.00 64 1025.7
20180221105506 33 21 7.0 11.0 0.00 0.00 0.00 65 1025.8
20180221105003 32 14 10.0 11.0 0.00 0.00 0.00 65 1025.8
20180221104505 32 23 7.0 11.0 0.00 0.00 0.00 67 1025.8
20180221104002 32 14 6.0 11.0 0.00 0.00 0.00 67 1025.8
20180221103502 32 40 1.0 10.0 0.00 0.00 0.00 66 1025.8
20180221103005 33 25 2.0 14.0 0.00 0.00 0.00 66 1025.9
20180221102502 33 34 2.0 14.0 0.00 0.00 0.00 64 1025.8
20180221102002 33 354 8.0 9.0 0.00 0.00 0.00 70 1025.8
20180221101501 33 270 0.0 10.0 0.00 0.00 0.00 69 1025.9
20180221101031 33 309 9.0 11.0 0.00 0.00 0.00 69 1026.0
20180221100501 33 327 8.0 11.0 0.00 0.00 0.00 70 1026.1
20180221100031 33 341 8.0 11.0 0.00 0.00 0.00 69 1026.1
20180221095501 34 332 6.0 11.0 0.00 0.00 0.00 67 1026.1
20180221095004 34 341 5.0 11.0 0.00 0.00 0.00 68 1026.2
20180221094501 34 347 10.0 10.0 0.00 0.00 0.00 69 1026.2
20180221094000 34 341 7.0 10.0 0.00 0.00 0.00 66 1026.3
20180221093533 34 0 8.0 10.0 0.00 0.00 0.00 70 1026.2
20180221093000 34 6 5.0 10.0 0.00 0.00 0.00 69 1026.2
20180221092533 33 5 8.0 10.0 0.00 0.00 0.00 71 1026.1
20180221092030 33 289 8.0 10.0 0.00 0.00 0.00 71 1026.1
20180221091530 32 1 6.0 9.0 0.00 0.00 0.00 73 1026.1
20180221091029 31 10 2.0 8.0 0.00 0.00 0.00 72 1026.0
20180221090529 31 322 0.0 8.0 0.00 0.00 0.00 72 1025.8
20180221090030 31 12 2.0 4.0 0.00 0.00 0.00 72 1025.8
20180221085459 31 12 0.0 3.0 0.00 0.00 0.00 69 1025.9
20180221084959 32 13 2.0 6.0 0.00 0.00 0.00 69 1025.9
20180221084529 33 13 0.0 9.0 0.00 0.00 0.00 67 1025.8
20180221083959 34 33 0.0 9.0 0.00 0.00 0.00 68 1025.8
20180221083458 34 19 3.0 9.0 0.00 0.00 0.00 63 1025.8
20180221083028 34 16 6.0 10.0 0.00 0.00 0.00 62 1025.8
20180221082529 34 15 5.0 11.0 0.00 0.00 0.00 64 1025.7
20180221082028 34 4 8.0 11.0 0.00 0.00 0.00 65 1025.6
20180221081532 35 359 11.0 11.0 0.00 0.00 0.00 64 1025.5
20180221080958 35 10 5.0 11.0 0.00 0.00 0.00 63 1025.5
20180221080528 35 11 7.0 12.0 0.00 0.00 0.00 64 1025.5
20180221080030 35 0 8.0 13.0 0.00 0.00 0.00 65 1025.4
20180221075531 35 348 11.0 13.0 0.00 0.00 0.00 61 1025.3
20180221075027 35 337 11.0 15.0 0.00 0.00 0.00 61 1025.2
20180221074527 35 349 11.0 15.0 0.00 0.00 0.00 64 1025.2
20180221074027 34 344 15.0 15.0 0.00 0.00 0.00 66 1025.2
20180221073527 33 327 2.0 11.0 0.00 0.00 0.00 65 1025.2
20180221073027 34 315 3.0 12.0 0.00 0.00 0.00 64 1025.1
20180221072530 33 276 8.0 12.0 0.00 0.00 0.00 67 1025.1
20180221072026 32 213 5.0 11.0 0.00 0.00 0.00 68 1025.1
20180221071530 32 242 1.0 11.0 0.00 0.00 0.00 66 1025.1
20180221071026 32 235 3.0 9.0 0.00 0.00 0.00 68 1025.1
20180221070526 32 337 2.0 8.0 0.00 0.00 0.00 69 1025.1